Voltar ao catálogo

FENGYUN 1C DEB

AtivoPO
NORAD 31658·DEBRIS·🇨🇳 China

Lançado May 10, 1999 de Taiyuan Satellite Launch Center

Loading…

Próximas Passagens (próximas 24 horas)

TLE

AtualizadoSource: Space-Track

Época: Sep 14, 2026, 10:44 UTC

1 31658U 99025CBQ 26257.44758033  .00003069  00000-0  17083-2 0  9993
2 31658  98.1438  81.8199 0212217 261.0291  96.6804 14.00917488736742

Acompanhe FENGYUN 1C DEB em tempo real com AllMySat

Download on the App Store